Location: Veytaux
(46.4185°N, 6.9320°E)
Time: 07:36:30
(UTC+00:00)

Cosmos 1943 - Pass Details

Date: 27 May 2022
Orbit: 834 x 849 km, 71.0° (Epoch: 01 July)

Event Time Altitude Azimuth Distance (km) Brightness Sun altitude
Exits shadow 02:35:54 11° 204° (SSW) 2,375 4.9 -10.3°
Maximum altitude 02:41:21 89° 117° (ESE) 855 3.3 -9.6°
Drops below altitude 10° 02:47:04 10° 27° (NNE) 2,479 7.0 -8.9°
Sets 02:49:31 0° 27° (NNE) 3,416 8.0 -8.6°
